Location: Star Hoppers Observatory
(42.7905°N, 83.6127°W)
Time: 23:17:53
(UTC-05:00)

NOSS 3-1 (A) - Visible Passes

Search period start: 21 December 2014 00:00
Search period end: 31 December 2014 00:00
Orbit: 890 x 1323 km, 63.4° (Epoch: 16 December)

Date Brightness Start Highest point End Pass type
(mag) Time Alt. Az. Time Alt. Az. Time Alt. Az.
21 Dec 4.6 17:47:29 10° NW 17:54:57 66° WSW 18:02:58 10° SSE visible
21 Dec 6.9 19:41:36 10° W 19:44:49 13° WSW 19:48:05 10° SW visible
22 Dec 6.5 18:55:01 10° WNW 19:00:35 22° WSW 19:06:22 10° SSW visible
23 Dec 6.5 06:59:09 10° SSE 07:03:02 18° ESE 07:07:06 10° ENE visible
23 Dec 5.9 18:09:31 10° NW 18:16:13 34° WSW 18:23:17 10° S visible
24 Dec 5.1 17:24:26 10° NW 17:31:44 51° WSW 17:39:30 10° S visible
25 Dec 5.0 07:18:19 10° S 07:23:54 41° ESE 07:29:56 10° NE visible
25 Dec 7.0 18:32:47 10° WNW 18:37:10 16° WSW 18:41:40 10° SW visible
26 Dec 5.9 06:34:49 10° SSE 06:39:35 25° ESE 06:44:38 10° ENE visible
26 Dec 6.5 17:46:47 10° WNW 17:52:52 26° WSW 17:59:14 10° SSW visible
27 Dec 6.5 05:52:22 10° SE 05:55:24 14° ESE 05:58:32 10° ENE visible
28 Dec 4.3 06:54:44 10° SSW 07:00:35 56° ESE 07:06:59 10° NE visible
28 Dec 7.3 18:11:34 10° W 18:13:41 11° WSW 18:15:50 10° WSW visible
29 Dec 5.2 06:10:51 10° S 06:16:11 34° ESE 06:21:55 10° NE visible
30 Dec 5.9 05:27:40 10° SSE 05:31:55 20° ESE 05:36:24 10° ENE visible
30 Dec 3.5 07:15:56 10° SW 07:22:00 72° NW 07:28:42 10° NNE visible
